Regional Weather Roundup
Issued by NWS San Angelo, TX

Home | Current Version | Previous Version | Text Only | Print | Product List | Glossary Off
Versions: 1 2 3 4 5 6 7 8 9 10 11 12 13 14 15 16 17 18 19 20 21 22 23 24 25 26 27 28 29 30 31 32 33 34 35 36 37 38 39 40 41 42 43 44 45 46 47 48 49 50

000
ASUS44 KSJT 182210
RWRSJT
WEST CENTRAL TEXAS REGIONAL WEATHER ROUNDUP
NATIONAL WEATHER SERVICE SAN ANGELO TX
400 PM CST SUN FEB 18 2018

NOTE: "FAIR" INDICATES FEW OR NO CLOUDS BELOW 12,000 FEET WITH NO
SIGNIFICANT WEATHER AND/OR OBSTRUCTIONS TO VISIBILITY.

TXZ049-054-064>066-071>073-076>078-098-099-113-114-127-128-139-140-
154-155-168>170-182300
...LOCATIONS ACROSS WEST CENTRAL TEXAS...

CITY           SKY/WX    TMP DP  RH WIND       PRES   REMARKS
SAN ANGELO     CLOUDY    70  59  68 S17       29.87F
ABILENE        MOSUNNY   70  61  73 S20G25    29.83F
DYESS AFB      SUNNY     73  62  68 S22       29.82F
JUNCTION       CLOUDY    70  61  73 S15G24    29.91F
SWEETWATER     MOSUNNY   78  56  46 S28G35    29.84F
BROWNWOOD      NOT AVBL
COLEMAN        CLEAR     71  61  70 S21       29.88F
SONORA         CLOUDY    66  63  88 S15G22    29.94F
OZONA          CLOUDY    63  61  94 S16G23    29.93S FOG
BRADY          NOT AVBL
$$

TEXAS PANHANDLE/OKLAHOMA PANHANDLE

CITY           SKY/WX    TMP DP  RH WIND       PRES   REMARKS
AMARILLO       CLOUDY    71  37  28 SW26G38   29.69F
BORGER         SUNNY     75  34  22 SW23G39   29.64F
CANADIAN       SUNNY     75  41  29 SW26G39   29.65S
DALHART        SUNNY     74  19  12 SW36G47   29.62F
DUMAS          CLEAR     73  32  22 SW29G40   29.63F
GUYMON         NOT AVBL
HEREFORD       PTCLDY    72  39  30 SW31G37   29.73F
PAMPA          CLEAR     73  39  29 SW32G41   29.67F
PERRYTON       SUNNY     77  30  17 SW33G44   29.58F
$$

SOUTHERN PANHANDLE/SOUTH PLAINS/ROLLING PLAINS

CITY           SKY/WX    TMP DP  RH WIND       PRES   REMARKS
LUBBOCK        PTSUNNY   77  39  25 SW31G39   29.74F
SNYDER         SUNNY     77  57  48 S28G35    29.81F
CHILDRESS      SUNNY     79  49  34 S22G30    29.71F
SEMINOLE       CLEAR     75  41  29 SW21      29.83F
$$

PERMIAN BASIN

CITY           SKY/WX    TMP DP  RH WIND       PRES   REMARKS
MIDLAND        SUNNY     77  54  44 S20       29.82F
ODESSA         SUNNY     78  53  41 S16G24    29.82F
WINK           MOSUNNY   80  45  28 SW10      29.79F
$$

FAR WEST/SOUTHWEST MOUNTAINS/TRANS PECOS

CITY           SKY/WX    TMP DP  RH WIND       PRES   REMARKS
ALPINE         PTCLDY    74  44  33 SW21G28   29.96S
DRYDEN           N/A     70  59  68 E9        29.86F
EL PASO        PTSUNNY   69  46  43 SW15      29.88F
FORT STOCKTON  SUNNY     80  47  31 SW22G30   29.81F
GUADALUPE PASS MOSUNNY   66  40  38 W35G47    29.91F
MARFA          CLOUDY    72  43  35 SW22G29   29.93F
PECOS          CLOUDY    78  45  30 NW3       29.79F
$$

DALLAS/FORT WORTH METROPLEX

CITY           SKY/WX    TMP DP  RH WIND       PRES   REMARKS
DFW AIRPORT    CLOUDY    64  60  87 SW12      29.90R
FTW MEACHAM    CLOUDY    65  59  81 S7        29.89S
DAL-EXECUTIVE  CLOUDY    59  58  96 S12G25    29.88R
GRAND PRAIRIE  MOSUNNY   61  61 100 S9G21     29.91R
ADDISON        CLOUDY    61  55  82 S10       29.91R
MESQUITE       CLOUDY    57  57 100 SE23G30   29.88F FOG
LANCASTER      CLOUDY    57  56  97 S24G35    29.88F FOG
$$

NORTH CENTRAL TEXAS

CITY           SKY/WX    TMP DP  RH WIND       PRES   REMARKS
SHRMAN/DENISON CLOUDY    54  52  95 SE12G22   29.91F FOG
GAINESVILLE    CLOUDY    54  52  94 S9        29.90F FOG
BRIDGEPORT     CLOUDY    60  56  85 S10       29.90F
DENTON         CLOUDY    58  56  93 S8        29.89F
WAXAHACHIE     CLOUDY    58  58 100 SE21G30   29.90F FOG
GRANBURY       CLOUDY    63  59  87 E6        29.91F
$$

WESTERN NORTH TEXAS

CITY           SKY/WX    TMP DP  RH WIND       PRES   REMARKS
WICHITA FALLS  MOSUNNY   64  53  67 S18       29.81F
VERNON         CLEAR     74  47  37 SE20G25   29.76F
BRECKENRIDGE   PTCLDY    67  57  69 S23G29    29.86F HAZE
COMANCHE       MOSUNNY   69  61  74 S24G31    29.88F
$$

CENTRAL AND SOUTH CENTRAL TEXAS

CITY           SKY/WX    TMP DP  RH WIND       PRES   REMARKS
AUSTIN/BERGSTM CLOUDY    76  66  71 S12G18    29.95F
WACO           CLOUDY    58  55  90 SE9       29.96F FOG
HILLSBORO      CLOUDY    59  59 100 SE16      29.93F FOG
TEMPLE         CLOUDY    61  59  94 S8        29.96F
KILLEEN-GRAY   CLOUDY    57  55  94 SE10      29.93F
FORT HOOD      CLOUDY    54  54 100 SE7       29.92F
GEORGETOWN     PTSUNNY   69  62  78 S15       29.98F
LAGO VISTA     CLOUDY    65  63  91 SE5       29.98F
SAN MARCOS     MOSUNNY   78  64  61 SE10      29.95F
NEW BRAUNFELS  PTSUNNY   79  63  57 SE17      29.93F
RANDOLPH AFB   PTSUNNY   78  64  60 SE9       29.92F
SAN ANTONIO    PTSUNNY   77  62  59 SE14      29.93F
STINSON        CLOUDY    81  64  56 SE7       29.90F
PLEASANTON     NOT AVBL
LA GRANGE      PTSUNNY   81  66  59 S14       29.95F
GIDDINGS       MOCLDY    76  63  63 S8        29.98F
$$

EAST TEXAS

CITY           SKY/WX    TMP DP  RH WIND       PRES   REMARKS
PARIS          CLOUDY    52  51  97 SE14      29.95F
CLARKSVILLE    NOT AVBL
TYLER          CLOUDY    60  57  89 SE8       30.00F FOG
LONGVIEW       CLOUDY    59  59 100 E6        30.03F FOG
PALESTINE      CLOUDY    65  62  90 SE5       30.02F
NACOGDOCHES    PTSUNNY   69  63  81 SE13      30.03F
$$

TEXAS HILL COUNTRY AND EDWARDS PLATEAU

CITY           SKY/WX    TMP DP  RH WIND       PRES   REMARKS
LLANO          CLOUDY    66  59  77 E7        29.96F
HORSESHOE BAY  CLOUDY    73  62  70 S12G20    29.95F
KERRVILLE      PTSUNNY   73  62  68 SE18      29.94F
FREDERICKSBRG  CLOUDY    71  60  68 S13       29.95F
ROCKSPRINGS    FOG       61  61 100 S15       29.98F VSB 1/2
HONDO          SUNNY     84  61  45 S22       29.91F
UVALDE         PTCLDY    80  62  53 SE14      29.89F
DEL RIO        CLOUDY    66  62  87 SE12      29.88F
$$

SOUTHEAST TEXAS

CITY           SKY/WX    TMP DP  RH WIND       PRES   REMARKS
COLLEGE STN    PTSUNNY   77  65  66 S12       29.98F
CALDWELL       MOCLDY    77  65  66 S14G23    29.98F
CROCKETT       MOCLDY    73  64  73 SE6       30.03F
BRENHAM        MOSUNNY   81  65  58 S14       29.98F
HUNTSVILLE     PTSUNNY   78  63  59 S10       30.00F
CONROE         FAIR      78  65  63 SE14      30.01F
HOUSTON BUSH   PTSUNNY   76  67  73 SE17      30.02F
HOUSTON HOBBY  PTSUNNY   77  67  71 SE16G22   30.02F
PERLAND        FAIR      76  67  73 S13       30.05S
WHARTON        FAIR      79  62  56 SE15      30.02S
$$

THE UPPER TEXAS COAST

CITY           SKY/WX    TMP DP  RH WIND       PRES   REMARKS
ORANGE         FAIR      75  70  84 S12       30.09F
PORT ARTHUR    PTSUNNY   74  67  78 S10       30.06F
GALVESTON      PTSUNNY   73  68  84 SE12      30.06S
ANGLETON       PTSUNNY   76  65  68 S16       30.04F
BAY CITY       MOCLDY    76  67  72 S14       30.03S
$$

TEXAS COASTAL BEND, RIO GRANDE PLAINS DEEP SOUTH TEXAS

CITY           SKY/WX    TMP DP  RH WIND       PRES   REMARKS
VICTORIA       FAIR      79  63  57 S23G29    29.99F
BEEVILLE       FAIR      80  64  57 SE22G32   29.94S
ROCKPORT       CLOUDY    74  68  81 SE14      29.98F
PORT ARANSAS   NOT AVBL
PORT LAVACA    MOCLDY    78  65  65 SE20      30.00F
CORPUS CHRISTI FAIR      80  67  64 S31G38    29.96F
KINGSVILLE NAS PTSUNNY   83  64  52 SE24G36   29.93F
COTULLA          N/A     87  60  40 S12       29.87F
LAREDO         MOSUNNY   87  59  38 SE18G25   29.86F
BROWNSVILLE    FAIR      82  67  60 SE25G31   29.96F
PORT ISABEL    FAIR      81  66  60 SE25      29.95F
HEBBRONVILLE   MOCLDY    83  58  42 S17G28    29.91S
MCALLEN        FAIR      85  66  53 SE23G31   29.92F
WESLACO        NOT AVBL
FALFURRIAS     PTCLDY    86  60  41 SE20G29   29.91F
EDINBURG       FAIR      84  61  46 SE22G29   29.93F
$$




USA.gov is the U.S. government's official web portal to all federal, state and local government web resources and services.